Tracking 18794 objects as of 21-September-2017
HD Live streaming from Space Station
objects crossing your sky now

COSMOS 2251 DEB

Track COSMOS 2251 DEB now!
10-day predictions


NORAD ID: 35442
Int'l Code: 1993-036AKL
Perigee: 741.8 km
Apogee: 763.5 km
Inclination: 74.0 °
Period: 99.7 minutes
Semi major axis: 7123 km
RCS: 0.0032 m2 (small)
Launch date: June 16, 1993
Source: Commonwealth of Independent States (former USSR) (CIS)
Launch site: PLESETSK MISSILE AND SPACE COMPLEX (PKMTR)

Note: This is SATELLITE DEBRIS
aabbcc
Your satellite tracking list
Your tracking list is empty





NASA's NSSDC Master Catalog

Two Line Element Set (TLE):
1 35442U 93036AKL 17262.60073209 +.00000850 +00000-0 +25647-3 0  9994
2 35442 074.0433 359.4457 0015191 055.6638 005.9276 14.43933618437283
Source of the keplerian elements: AFSPC